OV3-3

operational
NORAD ID: 2389 Int'l Des: 1966-070 Owner: OAR Country: US
LEOELLIPTICALPOLAR

OV3-3について

説明を読み込み中...

リアルタイム位置

3D地球を読み込み中...

次回通過

高度履歴

Altitude vs Time

uPlot chart will show altitude changes over time

軌道要素

1 2389U 66070A 26061.09364126 .00013773 00000-0 61746-3 0 9995
2 2389 81.3220 65.3176 1025774 75.0956 296.1338 13.42328663584586
Epoch: Mar 2, 2026 • Age: 31 hours

現在のステータス

高度 382.4 km
速度 8.05 km/s
衛星直下点 50.43°N, 167.46°E
タイプ other

大規模コンステレーション

Loading constellations...